FW7988 Weather Reports


Display with metric or nautical units.
time (UTC)temp
F
wind
direction
speed
MPH
gust
MPH
rain 1hr
in
rain 24hr
in
rain mn
in
humidity
%
barometer
mb
20260902002823 92 138 6.0 9.0 0.00 0.00 0.00 50
20260902002322 92 117 4.0 6.0 0.00 0.00 0.00 50
20260902001817 92 144 7.0 10.0 0.00 0.00 0.00 49
20260902001312 92 124 7.0 9.0 0.00 0.00 0.00 49
20260902000812 92 141 9.0 9.0 0.00 0.00 0.00 49
20260902000307 93 129 8.0 11.0 0.00 0.00 0.00 48
20260901235802 93 130 7.0 9.0 0.00 0.00 0.00 47
20260901235257 93 118 11.0 14.0 0.00 0.00 0.00 46
20260901234756 94 114 8.0 14.0 0.00 0.00 0.00 45
20260901234251 95 104 9.0 10.0 0.00 0.00 0.00 43
20260901233746 95 109 5.0 9.0 0.00 0.00 0.00 42
20260901233242 95 85 6.0 13.0 0.00 0.00 0.00 43
20260901232742 95 137 4.0 6.0 0.00 0.00 0.00 42
20260901232237 95 59 10.0 13.0 0.00 0.00 0.00 42
20260901231734 96 80 9.0 9.0 0.00 0.00 0.00 41
20260901231230 96 100 5.0 7.0 0.00 0.00 0.00 41
20260901230726 96 62 5.0 9.0 0.00 0.00 0.00 41
20260901230225 96 72 1.0 6.0 0.00 0.00 0.00 41
20260901225720 96 349 2.0 3.0 0.00 0.00 0.00 41
20260901225215 97 101 5.0 9.0 0.00 0.00 0.00 41
20260901224711 96 170 3.0 6.0 0.00 0.00 0.00 41
20260901224207 96 97 3.0 7.0 0.00 0.00 0.00 41
20260901223702 96 37 5.0 8.0 0.00 0.00 0.00 41
20260901223157 96 111 6.0 11.0 0.00 0.00 0.00 40
20260901222653 97 52 5.0 10.0 0.00 0.00 0.00 39
20260901222149 97 149 4.0 7.0 0.00 0.00 0.00 41
20260901221645 96 62 8.0 10.0 0.00 0.00 0.00 41
20260901221141 97 97 9.0 17.0 0.00 0.00 0.00 42
20260901220640 97 31 3.0 5.0 0.00 0.00 0.00 41
20260901220139 97 79 3.0 7.0 0.00 0.00 0.00 42
20260901215638 97 102 6.0 9.0 0.00 0.00 0.00 41
20260901215132 98 159 2.0 7.0 0.00 0.00 0.00 40
20260901214631 97 90 0.0 3.0 0.00 0.00 0.00 40
20260901214130 96 142 3.0 6.0 0.00 0.00 0.00 41
20260901213625 96 135 5.0 8.0 0.00 0.00 0.00 41
20260901213120 96 97 3.0 10.0 0.00 0.00 0.00 43
20260901212619 97 142 6.0 15.0 0.00 0.00 0.00 43
20260901212115 97 136 6.0 10.0 0.00 0.00 0.00 43
20260901211610 96 118 5.0 7.0 0.00 0.00 0.00 43
20260901211107 96 1 5.0 7.0 0.00 0.00 0.00 43
20260901210602 96 116 7.0 9.0 0.00 0.00 0.00 43
20260901210058 96 111 2.0 5.0 0.00 0.00 0.00 44
20260901205554 96 121 4.0 7.0 0.00 0.00 0.00 44
20260901205053 97 122 9.0 16.0 0.00 0.00 0.00 44
20260901204549 96 91 1.0 5.0 0.00 0.00 0.00 44
20260901204045 95 69 0.0 7.0 0.00 0.00 0.00 45
20260901203544 96 125 7.0 10.0 0.00 0.00 0.00 45
20260901203040 96 141 5.0 9.0 0.00 0.00 0.00 43
20260901202534 97 127 4.0 7.0 0.00 0.00 0.00 43
20260901202031 96 127 4.0 8.0 0.00 0.00 0.00 45
20260901201526 95 187 4.0 9.0 0.00 0.00 0.00 46
20260901201025 95 143 7.0 10.0 0.00 0.00 0.00 45
20260901200525 96 248 3.0 7.0 0.00 0.00 0.00 44
20260901200020 95 155 3.0 5.0 0.00 0.00 0.00 45
20260901195517 95 128 3.0 6.0 0.00 0.00 0.00 45
20260901195017 96 154 5.0 9.0 0.00 0.00 0.00 45
20260901194512 95 218 3.0 11.0 0.00 0.00 0.00 45
20260901194008 95 170 5.0 8.0 0.00 0.00 0.00 46
20260901193507 96 90 6.0 13.0 0.00 0.00 0.00 45
20260901193008 96 186 5.0 6.0 0.00 0.00 0.00 44
20260901192503 96 201 6.0 10.0 0.00 0.00 0.00 45
20260901191959 95 142 1.0 6.0 0.00 0.00 0.00 44
20260901191454 95 154 4.0 11.0 0.00 0.00 0.00 44
20260901190950 94 217 1.0 5.0 0.00 0.00 0.00 46
20260901190445 94 110 5.0 6.0 0.00 0.00 0.00 45
20260901185943 94 105 4.0 10.0 0.00 0.00 0.00 46
20260901185438 94 174 6.0 14.0 0.00 0.00 0.00 47
20260901184937 94 55 3.0 7.0 0.00 0.00 0.00 47
20260901184432 94 119 3.0 8.0 0.00 0.00 0.00 46
20260901183928 93 339 4.0 5.0 0.00 0.00 0.00 48
20260901183427 93 100 6.0 9.0 0.00 0.00 0.00 47
20260901182923 92 163 1.0 6.0 0.00 0.00 0.00 48
20260901182419 93 132 10.0 13.0 0.00 0.00 0.00 48
20260901181913 93 164 3.0 9.0 0.00 0.00 0.00 48
20260901181408 92 174 5.0 9.0 0.00 0.00 0.00 50
20260901180907 92 32 6.0 11.0 0.00 0.00 0.00 49
20260901180401 92 146 5.0 6.0 0.00 0.00 0.00 49
20260901175859 91 109 5.0 8.0 0.00 0.00 0.00 50
20260901175354 92 119 13.0 15.0 0.00 0.00 0.00 51
20260901174849 93 78 6.0 11.0 0.00 0.00 0.00 50
20260901174345 92 157 7.0 11.0 0.00 0.00 0.00 50
20260901173840 92 149 4.0 7.0 0.00 0.00 0.00 52
20260901173335 91 151 7.0 9.0 0.00 0.00 0.00 52
20260901172832 91 65 6.0 9.0 0.00 0.00 0.00 51
20260901172331 92 84 5.0 9.0 0.00 0.00 0.00 50
20260901171829 91 112 5.0 9.0 0.00 0.00 0.00 51
20260901171328 91 137 7.0 9.0 0.00 0.00 0.00 51
20260901170827 91 130 6.0 9.0 0.00 0.00 0.00 52
20260901170322 90 55 3.0 6.0 0.00 0.00 0.00 53
20260901165822 90 82 6.0 8.0 0.00 0.00 0.00 53
20260901165316 90 79 4.0 7.0 0.00 0.00 0.00 53
20260901164813 90 123 5.0 10.0 0.00 0.00 0.00 53
20260901164308 91 176 5.0 7.0 0.00 0.00 0.00 54
20260901163803 90 134 1.0 3.0 0.00 0.00 0.00 53
20260901163303 90 69 3.0 6.0 0.00 0.00 0.00 55
20260901162757 90 121 5.0 9.0 0.00 0.00 0.00 55
20260901162257 90 121 5.0 7.0 0.00 0.00 0.00 52
20260901161755 89 94 4.0 9.0 0.00 0.00 0.00 55
20260901161250 89 122 1.0 5.0 0.00 0.00 0.00 57
20260901160746 89 158 4.0 5.0 0.00 0.00 0.00 57
20260901160242 88 69 2.0 5.0 0.00 0.00 0.00 57
20260901155741 88 81 3.0 7.0 0.00 0.00 0.00 59
20260901155236 89 77 0.0 3.0 0.00 0.00 0.00 58
20260901154731 87 37 2.0 3.0 0.00 0.00 0.00 58
20260901154227 88 74 3.0 6.0 0.00 0.00 0.00 57
20260901153721 89 141 3.0 7.0 0.00 0.00 0.00 57
20260901153220 88 144 1.0 2.0 0.00 0.00 0.00 58
20260901152715 87 110 2.0 5.0 0.00 0.00 0.00 60
20260901152214 86 141 1.0 5.0 0.00 0.00 0.00 62
20260901151710 86 141 3.0 5.0 0.00 0.00 0.00 63
20260901151209 85 306 2.0 5.0 0.00 0.00 0.00 65
20260901150708 84 11 1.0 3.0 0.00 0.00 0.00 67
20260901150207 85 181 2.0 5.0 0.00 0.00 0.00 67
20260901145705 84 289 1.0 2.0 0.00 0.00 0.00 67
20260901145159 84 249 3.0 5.0 0.00 0.00 0.00 71
20260901144655 84 217 1.0 3.0 0.00 0.00 0.00 72
20260901144150 83 0 1.0 5.0 0.00 0.00 0.00 73
20260901143645 82 156 1.0 2.0 0.00 0.00 0.00 75
20260901143141 83 270 2.0 5.0 0.00 0.00 0.00 74
20260901142638 82 135 1.0 3.0 0.00 0.00 0.00 76
20260901142136 81 254 1.0 3.0 0.00 0.00 0.00 77
20260901141631 81 208 1.0 5.0 0.00 0.00 0.00 79
20260901141131 81 225 3.0 5.0 0.00 0.00 0.00 79
20260901140630 81 250 4.0 7.0 0.00 0.00 0.00 79
20260901140129 80 221 1.0 2.0 0.00 0.00 0.00 82
20260901135624 80 264 3.0 7.0 0.00 0.00 0.00 82
20260901135119 80 276 4.0 6.0 0.00 0.00 0.00 83
20260901134616 79 265 2.0 5.0 0.00 0.00 0.00 85
20260901134116 79 250 5.0 8.0 0.00 0.00 0.00 85
20260901133614 78 251 5.0 6.0 0.00 0.00 0.00 86
20260901133113 78 271 3.0 3.0 0.00 0.00 0.00 86
20260901132608 77 266 2.0 2.0 0.00 0.00 0.00 87
20260901132103 77 334 1.0 2.0 0.00 0.00 0.00 86
20260901131602 78 290 1.0 2.0 0.00 0.00 0.00 86
20260901131057 78 155 0.0 0.0 0.00 0.00 0.00 86
20260901130552 77 115 0.0 0.0 0.00 0.00 0.00 87
20260901130050 77 84 0.0 0.0 0.00 0.00 0.00 88
20260901125549 76 84 0.0 0.0 0.00 0.00 0.00 90
20260901125044 75 86 0.0 0.0 0.00 0.00 0.00 90
20260901124544 75 105 0.0 0.0 0.00 0.00 0.00 91
20260901124039 74 182 0.0 1.0 0.00 0.00 0.00 91
20260901123533 75 175 0.0 0.0 0.00 0.00 0.00 91
20260901123028 75 178 1.0 1.0 0.00 0.00 0.00 91
20260901122526 75 180 1.0 2.0 0.00 0.00 0.00 91
20260901122025 74 183 2.0 3.0 0.00 0.00 0.00 92
20260901121520 74 188 3.0 3.0 0.00 0.00 0.00 91
20260901121016 74 185 2.0 3.0 0.00 0.00 0.00 91
20260901120515 74 201 2.0 3.0 0.00 0.00 0.00 91
20260901120011 75 198 2.0 3.0 0.00 0.00 0.00 91
20260901115506 75 185 3.0 3.0 0.00 0.00 0.00 91
20260901115004 74 186 2.0 2.0 0.00 0.00 0.00 91
20260901114459 74 221 0.0 1.0 0.00 0.00 0.00 91
20260901113956 74 241 2.0 2.0 0.00 0.00 0.00 91
20260901113456 74 276 1.0 2.0 0.00 0.00 0.00 91
20260901112951 74 315 1.0 2.0 0.00 0.00 0.00 91
20260901112447 74 358 0.0 0.0 0.00 0.00 0.00 90
20260901111942 74 29 0.0 0.0 0.00 0.00 0.00 90
20260901111440 74 153 0.0 1.0 0.00 0.00 0.00 90
20260901110938 75 158 0.0 0.0 0.00 0.00 0.00 89
20260901110434 75 163 0.0 0.0 0.00 0.00 0.00 89
20260901105930 75 171 0.0 1.0 0.00 0.00 0.00 89
20260901105426 75 191 1.0 2.0 0.00 0.00 0.00 89
20260901104921 75 193 2.0 2.0 0.00 0.00 0.00 89
20260901104422 75 196 1.0 2.0 0.00 0.00 0.00 88
20260901103917 75 209 3.0 3.0 0.00 0.00 0.00 88
20260901103412 75 187 3.0 5.0 0.00 0.00 0.00 88
20260901102907 75 191 4.0 6.0 0.00 0.00 0.00 88
20260901102401 75 189 5.0 7.0 0.00 0.00 0.00 88
20260901101857 75 194 3.0 6.0 0.00 0.00 0.00 87
20260901101357 75 186 6.0 7.0 0.00 0.00 0.00 87
20260901100856 75 179 3.0 6.0 0.00 0.00 0.00 86
20260901100351 75 167 3.0 5.0 0.00 0.00 0.00 86
20260901095850 75 136 3.0 5.0 0.00 0.00 0.00 85
20260901095348 75 154 2.0 3.0 0.00 0.00 0.00 85
20260901094842 75 123 2.0 3.0 0.00 0.00 0.00 85
20260901094337 75 176 4.0 5.0 0.00 0.00 0.00 84
20260901093832 76 183 3.0 6.0 0.00 0.00 0.00 84
20260901093331 76 173 2.0 3.0 0.00 0.00 0.00 84
20260901092827 76 167 4.0 5.0 0.00 0.00 0.00 84
20260901092323 76 184 3.0 6.0 0.00 0.00 0.00 83
20260901091819 76 181 4.0 6.0 0.00 0.00 0.00 83
20260901091318 76 182 4.0 6.0 0.00 0.00 0.00 83
20260901090813 76 176 5.0 7.0 0.00 0.00 0.00 83
20260901090308 76 191 4.0 6.0 0.00 0.00 0.00 83
20260901085804 76 192 4.0 5.0 0.00 0.00 0.00 82
20260901085259 76 184 4.0 5.0 0.00 0.00 0.00 82
20260901084755 76 181 3.0 7.0 0.00 0.00 0.00 82
20260901084252 77 181 4.0 5.0 0.00 0.00 0.00 82
20260901083751 77 188 3.0 5.0 0.00 0.00 0.00 82
20260901083252 77 187 4.0 6.0 0.00 0.00 0.00 82
20260901082750 77 168 5.0 6.0 0.00 0.00 0.00 81
20260901082245 77 196 5.0 6.0 0.00 0.00 0.00 81
20260901081740 77 187 4.0 7.0 0.00 0.00 0.00 81
20260901081240 77 195 3.0 6.0 0.00 0.00 0.00 81
20260901080736 77 179 4.0 8.0 0.00 0.00 0.00 81
20260901080234 78 185 5.0 7.0 0.00 0.00 0.00 81
20260901075734 78 169 3.0 7.0 0.00 0.00 0.00 81
20260901075229 78 166 3.0 6.0 0.00 0.00 0.00 81
20260901074724 77 180 4.0 6.0 0.00 0.00 0.00 81
20260901074219 77 178 3.0 7.0 0.00 0.00 0.00 82
20260901073716 77 189 4.0 7.0 0.00 0.00 0.00 82
20260901073211 78 186 4.0 6.0 0.00 0.00 0.00 81
20260901072706 78 179 3.0 5.0 0.00 0.00 0.00 81
20260901072201 78 158 2.0 5.0 0.00 0.00 0.00 81
20260901071700 78 171 3.0 5.0 0.00 0.00 0.00 80
20260901071155 78 166 1.0 5.0 0.00 0.00 0.00 80
20260901070649 79 165 1.0 6.0 0.00 0.00 0.00 79
20260901070144 79 185 3.0 6.0 0.00 0.00 0.00 79
20260901065643 79 140 3.0 5.0 0.00 0.00 0.00 78
20260901065138 79 180 4.0 6.0 0.00 0.00 0.00 78
20260901064630 79 170 5.0 7.0 0.00 0.00 0.00 78
20260901064125 79 179 4.0 5.0 0.00 0.00 0.00 77
20260901063622 80 183 4.0 6.0 0.00 0.00 0.00 77
20260901063118 80 157 1.0 7.0 0.00 0.00 0.00 76
20260901062614 80 181 3.0 7.0 0.00 0.00 0.00 76
20260901062110 80 171 7.0 9.0 0.00 0.00 0.00 75
20260901061606 80 176 3.0 7.0 0.00 0.00 0.00 75
20260901061106 80 178 4.0 9.0 0.00 0.00 0.00 74
20260901060606 80 172 5.0 7.0 0.00 0.00 0.00 74
20260901055556 81 172 4.0 7.0 0.00 0.00 0.00 73
20260901055053 81 162 5.0 7.0 0.00 0.00 0.00 72
20260901054550 81 130 2.0 6.0 0.00 0.00 0.00 72
20260901054045 81 188 3.0 6.0 0.00 0.00 0.00 71
20260901053541 81 180 3.0 6.0 0.00 0.00 0.00 71
20260901053037 82 199 4.0 6.0 0.00 0.00 0.00 70
20260901052537 82 201 4.0 8.0 0.00 0.00 0.00 70
20260901052032 82 140 4.0 7.0 0.00 0.00 0.00 70
20260901051527 82 145 3.0 7.0 0.00 0.00 0.00 69
20260901051025 82 137 4.0 8.0 0.00 0.00 0.00 69
20260901050521 82 161 7.0 8.0 0.00 0.00 0.00 69
20260901050017 83 174 6.0 7.0 0.00 0.00 0.00 69
20260901045512 83 153 4.0 7.0 0.00 0.00 0.00 68
20260901045011 83 157 6.0 7.0 0.00 0.00 0.00 68
20260901044508 83 181 7.0 9.0 0.00 0.00 0.00 68
20260901044003 84 167 6.0 9.0 0.00 0.00 0.00 68
20260901043459 84 137 8.0 9.0 0.00 0.00 0.00 67
20260901042954 84 158 5.0 10.0 0.00 0.00 0.00 67
20260901042453 84 123 4.0 8.0 0.00 0.00 0.00 67
20260901041949 84 188 7.0 10.0 0.00 0.00 0.00 67
20260901041444 85 156 8.0 10.0 0.00 0.00 0.00 67
20260901040943 85 169 5.0 11.0 0.00 0.00 0.00 66
20260901040439 85 128 8.0 14.0 0.00 0.00 0.00 66
20260901035937 85 161 10.0 14.0 0.00 0.00 0.00 66
20260901035436 85 122 11.0 14.0 0.00 0.00 0.00 66
20260901034935 85 137 10.0 15.0 0.00 0.00 0.00 65
20260901034429 85 153 7.0 9.0 0.00 0.00 0.00 64
20260901033930 85 144 11.0 16.0 0.00 0.00 0.00 63
20260901033428 86 133 9.0 13.0 0.00 0.00 0.00 62
20260901032927 86 136 7.0 11.0 0.00 0.00 0.00 62
20260901032422 86 158 10.0 15.0 0.00 0.00 0.00 60
20260901031917 86 140 9.0 11.0 0.00 0.00 0.00 59
20260901031413 86 125 5.0 13.0 0.00 0.00 0.00 57
20260901030912 87 131 9.0 14.0 0.00 0.00 0.00 55
20260901030403 87 138 7.0 9.0 0.00 0.00 0.00 53
20260901025901 87 111 7.0 9.0 0.00 0.00 0.00 52
20260901025356 87 106 5.0 7.0 0.00 0.00 0.00 52
20260901024851 87 123 3.0 6.0 0.00 0.00 0.00 52
20260901024350 87 135 3.0 3.0 0.00 0.00 0.00 51
20260901023848 88 121 3.0 3.0 0.00 0.00 0.00 50
20260901023344 88 134 3.0 6.0 0.00 0.00 0.00 50
20260901022838 88 132 5.0 6.0 0.00 0.00 0.00 49
20260901022335 89 140 4.0 7.0 0.00 0.00 0.00 48
20260901021830 89 129 5.0 7.0 0.00 0.00 0.00 48
20260901021325 89 137 7.0 9.0 0.00 0.00 0.00 47
20260901020820 89 104 9.0 10.0 0.00 0.00 0.00 47
20260901020315 88 123 5.0 6.0 0.00 0.00 0.00 48
20260901015815 89 110 3.0 3.0 0.00 0.00 0.00 48
20260901015312 89 112 2.0 3.0 0.00 0.00 0.00 49
20260901014810 89 124 2.0 3.0 0.00 0.00 0.00 49
20260901014306 89 115 3.0 3.0 0.00 0.00 0.00 49
20260901013802 89 121 4.0 5.0 0.00 0.00 0.00 48
20260901013258 90 116 2.0 3.0 0.00 0.00 0.00 48
20260901012753 90 128 3.0 3.0 0.00 0.00 0.00 47
20260901012253 90 114 3.0 5.0 0.00 0.00 0.00 46
20260901011749 91 121 3.0 3.0 0.00 0.00 0.00 46
20260901011244 91 117 3.0 3.0 0.00 0.00 0.00 46
20260901010738 91 121 3.0 5.0 0.00 0.00 0.00 46
20260901010233 91 127 3.0 3.0 0.00 0.00 0.00 45
20260901005731 92 123 2.0 3.0 0.00 0.00 0.00 45
20260901005227 92 130 3.0 3.0 0.00 0.00 0.00 45
20260901004726 92 149 5.0 6.0 0.00 0.00 0.00 44
20260901004216 93 115 4.0 6.0 0.00 0.00 0.00 43
20260901003715 93 135 6.0 8.0 0.00 0.00 0.00 43
20260901003210 93 140 4.0 8.0 0.00 0.00 0.00 43